#timestamp,LO_Frequency,Hit,StdDev 
1641765615.9,286046997.0,N
1641765635.7,286046999.6,N
1641765655.5,286046996.5,N
1641765675.4,286046998.8,N
1641765695.2,286047000.7,N
1641765715.1,286047000.3,N
1641765716.0,286047000.3,N
1641765735.8,286047002.8,N
1641765755.6,286047002.6,N
1641765775.5,286047002.5,N
1641765795.3,286047002.6,N
1641765815.2,286047000.2,N
1641765835.9,286047000.3,N
1641765855.7,286046999.4,N
1641765875.6,286046999.6,N
1641765895.4,286047001.1,N
1641765915.2,286047001.0,N
1641765935.1,286047000.2,N
1641765936.0,286047000.2,N
1641765955.8,286047002.7,N
1641765975.7,286047001.9,N
1641765995.5,286047002.3,N
1641766015.3,286047002.7,N
1641766035.2,286047002.8,N
1641766055.0,286047002.2,N
1641766055.9,286047002.2,N
1641766075.7,286047000.5,N
1641766095.6,286047000.3,N
1641766115.4,286047000.9,N
1641766135.3,286046999.7,N
1641766155.1,286047000.8,N
1641766175.8,286046998.6,N
1641766195.7,286046998.6,N
1641766215.5,286047001.1,N
1641766235.4,286046998.3,N
1641766255.2,286047000.0,N
1641766275.0,286047000.5,N
1641766275.9,286047000.5,N
1641766295.8,286047002.6,N
1641766315.6,286047002.2,N
1641766335.4,286047003.8,N
1641766355.3,286047001.8,N
1641766375.1,286046999.8,N
1641766395.9,286047000.7,N
1641766415.7,286046998.5,N
1641766435.5,286047002.3,N
1641766455.4,286047001.7,N
1641766475.2,286047001.4,N
1641766495.0,286047001.3,N
1641766495.9,286047001.3,N
1641766515.8,286047001.9,N
1641766535.6,286047000.2,N
1641766555.5,286047000.1,N
1641766575.3,286047000.1,N
1641766625.2,286046999.9,E
1641766635.1,286047000.4,N
1641766636.0,286047000.4,P
1641766655.8,286047002.1,P
1641766675.7,286047002.4,N
1641766695.5,286047002.0,N
1641766715.3,286047001.5,N
1641766735.2,286046999.8,N
1641766755.0,286047001.0,N
1641766755.9,286047001.0,N
1641766775.7,286047001.0,N
1641766795.6,286046998.7,N
1641766815.4,286047000.8,N
1641766835.3,286047001.1,N
1641766855.1,286047000.6,N
1641766875.8,286047000.8,N
1641766895.1,286046998.3,N
1641766915.9,286046999.5,N
1641766935.7,286046998.6,N
1641766955.6,286046998.3,N
1641766975.4,286047001.1,N
1641766995.2,286047002.1,N
1641767015.1,286046999.8,N
1641767016.0,286046999.8,N
1641767035.8,286047000.6,N
1641767055.6,286047000.9,N
1641767075.5,286047001.2,N
1641767095.3,286046998.2,N
1641767115.2,286046998.8,N
1641767135.9,286046998.2,N
1641767155.7,286046999.4,N
1641767175.6,286046999.2,N
1641767195.4,286046999.5,N
1641767215.2,286046999.3,N
1641767235.1,286046999.2,N
1641767236.0,286046999.2,N
1641767255.8,286046998.3,N
1641767275.7,286046998.1,N
1641767295.5,286046998.1,N
1641767315.4,286046998.4,N
1641767335.2,286047002.3,N
1641767355.0,286047002.5,N
1641767355.9,286047002.5,N
1641767375.8,286047002.0,N
1641767395.6,286047002.5,N
1641767415.4,286047000.7,N
1641767435.3,286047001.2,N
1641767455.1,286047001.0,N
1641767475.9,286047000.0,N
1641767495.7,286046998.8,N
1641767515.5,286046999.0,N
1641767535.4,286046998.9,N
1641767555.2,286046998.6,N
1641767575.0,286046999.3,N
1641767575.9,286046999.3,N
1641767595.8,286046998.4,N
1641767615.6,286047000.0,N
1641767635.5,286047000.7,N
1641767655.3,286046998.8,N
1641767675.1,286046998.6,N
1641767695.9,286046998.9,N
1641767715.7,286046999.4,N
1641767735.6,286047000.9,N
1641767755.4,286046999.9,N
1641767775.2,286047000.9,N
1641767795.1,286047002.3,N
1641767796.0,286047002.3,N
1641767815.8,286046999.9,N
1641767835.6,286047001.0,N
1641767855.5,286047000.9,N
1641767875.3,286046998.1,N
1641767895.2,286047002.8,N
1641767915.9,286047000.9,N
1641767935.7,286047001.2,N
1641767955.6,286047000.0,N
1641767975.4,286047000.4,N
1641767995.3,286047000.3,N
1641768015.1,286047001.2,N
1641768016.0,286047001.2,N
1641768035.8,286047001.1,N
1641768055.7,286047000.6,N
1641768075.5,286047000.6,N
1641768095.3,286047000.5,N
1641768115.2,286047000.2,N
1641768135.0,286047001.2,N
1641768135.9,286047001.2,N
1641768155.8,286047000.8,N
1641768175.6,286047000.3,N
1641768195.4,286047000.4,N
1641768215.3,286047000.3,N
1641768235.1,286047000.5,N
1641768255.9,286046998.7,N
1641768275.7,286046998.5,N
1641768295.5,286047000.7,N
1641768315.4,286047000.8,N
1641768335.2,286047001.6,N
1641768355.0,286047002.7,N
1641768356.0,286047002.7,N
1641768375.8,286047001.0,N
1641768395.6,286047000.4,N
1641768415.5,286047000.1,N
1641768435.3,286047001.7,N
1641768455.1,286047002.0,N
1641768475.9,286047001.5,N
1641768495.7,286047004.4,Y
1641768515.6,286047002.5,P
1641768535.4,286047002.1,N
1641768555.2,286047001.6,N
1641768575.1,286047003.5,Y
1641768576.0,286047003.5,P
1641768595.8,286047000.8,N
1641768615.7,286046999.5,N
1641768635.5,286046997.3,N
1641768655.3,286046994.9,N
1641768675.2,286046999.6,N
1641768695.0,286046999.0,N
1641768695.9,286046999.0,N
1641768715.7,286046999.6,N
1641768735.6,286046999.1,N
1641768755.4,286046999.5,N
1641768775.3,286046999.1,N
1641768795.1,286046999.0,N
1641768796.0,286046999.0,N
1641768815.8,286046996.9,N
1641768835.7,286046997.7,N
1641768855.5,286046995.1,N
1641768875.4,286046995.4,N
1641768895.2,286046995.8,N
1641768915.0,286046995.0,N
1641768915.9,286046995.0,N
1641768935.8,286046997.4,N
1641768955.6,286046997.3,N
1641768975.4,286046996.9,N
1641768995.3,286046997.1,N
1641769015.1,286046999.4,N
1641769035.9,286046999.4,N
1641769055.7,286046994.9,N
1641769075.5,286046997.9,N
1641769095.4,286046995.9,N
1641769115.2,286046998.0,N
1641769135.0,286046996.8,N
1641769135.9,286046996.8,N
1641769155.8,286046999.4,N
1641769175.6,286046997.8,N
1641769195.5,286046997.2,N
